[[{"header":{"parameterUnit":"m.s-1","parameterCategory":1,"la1":30.2992,"la2":30.254,"lo1":-89.0895,"lo2":-89.0443,"dy":0.0025,"dx":0.0025,"nx":19,"ny":19,"refTime":"2026-05-18T21:00:00:Z","depth":0,"parameterNumber":2,"parameterNumberName":"U-component_of_WINDS"},"data":[0,0,0,-1.9834,-1.9836,-1.9923,-1.9924,-2.0039,-2.004,0,0,0,0,0,0,0,0,0,0,0,-1.9811,-1.9811,-1.9834,-1.9836,-1.9923,-1.9924,-2.0039,-2.004,0,0,0,0,0,0,0,0,0,0,0,-1.981,-1.9811,-1.9812,-1.9836,-1.9923,-1.9924,-2.0038,-1.9971,0,0,0,0,0,0,0,0,0,0,-1.9885,-1.9867,-1.9811,-1.9812,-1.9837,-1.9923,-1.9924,-1.9968,-1.9975,-2.0001,0,-2.0025,0,-2.0034,-2.0048,-2.0048,0,0,0,-1.9834,-1.986,-1.9882,-1.9812,-1.9838,-1.9923,-1.9883,-1.9972,-1.998,-2.0011,-2.0026,-2.003,-2.0036,-2.0049,-2.0049,-2.0204,-2.0205,0,0,-1.9829,-1.9828,-1.9876,-1.9887,-1.9875,-1.9881,-1.9886,-1.9977,-1.9994,-2.0027,-2.0033,-2.0038,-2.0049,-2.005,-2.0203,-2.0204,0,0,0,-1.9817,-1.9824,-1.9843,-1.9883,-1.9898,-1.9883,-1.989,-1.9989,-1.9996,-2.0034,-2.0039,-2.005,-2.0051,-2.0203,-2.0204,-2.0243,0,0,0,-1.9814,-1.9817,-1.9841,-1.9841,-1.9897,-1.9945,-1.99,-1.999,-2.0,-2.0039,-2.005,-2.0053,-2.0202,-2.0203,-2.024,-2.0262,0,0,0,-1.9804,-1.9816,-1.9829,-1.9841,-1.9879,-1.9944,-1.9955,-1.9992,-2.0003,-2.0048,-2.0053,-2.0201,-2.0203,-2.0237,-2.0257,-2.0302,0,0,0,-1.9793,-1.9863,-1.983,-1.991,-1.9878,-1.9968,-1.9955,-2.0021,-2.0065,-2.0051,-2.0202,-2.0204,-2.0237,-2.0255,-2.0299,-2.034,-2.0356,0,0,-1.988,-1.9873,-1.992,-1.9894,-1.9989,-1.9954,-2.0055,-2.0096,-2.0102,-2.017,-2.0173,-2.0241,-2.0257,-2.0302,-2.045,-2.0464,0,0,0,-1.9948,-1.9981,-2.0007,-2.0049,-2.0082,-2.0112,-2.0138,-2.0153,-2.0211,-2.0136,-2.0269,-2.0279,-2.0305,-2.0324,-2.0336,-2.0358,-2.0213,-2.0212,-2.0212,-2.0069,-2.0072,-2.015,-2.0165,-2.0205,-2.0231,-2.0264,-2.0288,-2.028,-2.0311,-2.0332,-2.0421,-2.0444,-2.0453,-2.0476,-2.0353,-2.0353,-2.0353,-2.0354,-2.0197,-2.0245,-2.0232,-2.0304,-2.0307,-2.0366,-2.0394,-2.0386,-2.0442,-2.0407,-2.043,-2.0391,-2.0467,-2.0488,-2.0357,-2.0356,-2.0356,-2.0355,-2.0355,-2.0276,-2.03,-2.0318,-2.0378,-2.0424,-2.0436,-2.049,-2.0491,-2.0492,-2.0515,-2.0536,-2.0535,-2.0535,-2.0525,-2.0525,-2.0525,-2.0526,-2.0526,-2.0526,-2.0352,-2.0371,-2.0417,-2.0458,-2.0484,-2.052,-2.0546,-2.0572,-2.0601,-2.0598,-2.0598,-2.0586,-2.0474,-2.0446,-2.0531,-2.053,-2.053,-2.0529,-2.0529,-2.0481,-2.0452,-2.0523,-2.0549,-2.0598,-2.0643,-2.0643,-2.0697,-2.0718,-2.0745,-2.0728,-2.0645,-2.0638,-2.0629,-2.0606,-2.0727,-2.0727,-2.0727,-2.0727,-2.0548,-2.0544,-2.0617,-2.066,-2.0701,-2.0709,-2.0788,-2.081,-2.0827,-2.084,-2.0823,-2.0792,-2.0783,-2.0781,-2.0769,-2.0747,-2.0902,-2.0902,-2.0902,-2.0627,-2.0628,-2.0695,-2.0712,-2.075,-2.0782,-2.0857,-2.0906,-2.0919,-2.0909,-2.0851,-2.0844,-2.0794,-2.0777,-2.0766,-2.0747,-2.0707,0,0]},{"header":{"parameterUnit":"m.s-1","parameterCategory":1,"la1":30.2992,"la2":30.254,"lo1":-89.0895,"lo2":-89.0443,"dy":0.0025,"dx":0.0025,"nx":19,"ny":19,"refTime":"2026-05-18T21:00:00:Z","depth":0,"parameterNumber":3,"parameterNumberName":"V-component_of_WINDS"},"data":[0,0,0,0.6897,0.6896,0.6856,0.6855,0.6807,0.6807,0,0,0,0,0,0,0,0,0,0,0,0.6912,0.6912,0.6897,0.6896,0.6856,0.6855,0.6807,0.6807,0,0,0,0,0,0,0,0,0,0,0,0.6913,0.6912,0.6912,0.6896,0.6856,0.6855,0.6808,0.6836,0,0,0,0,0,0,0,0,0,0,0.6875,0.6893,0.6912,0.6912,0.6896,0.6856,0.6855,0.6838,0.6835,0.6828,0,0.6824,0,0.6815,0.6804,0.6804,0,0,0,0.6893,0.6896,0.6882,0.6912,0.6895,0.6856,0.6873,0.6836,0.6832,0.6824,0.6823,0.6822,0.6814,0.6804,0.6804,0.678,0.678,0,0,0.6895,0.6907,0.6884,0.688,0.6888,0.6874,0.6872,0.6834,0.6833,0.6823,0.682,0.6813,0.6804,0.6803,0.678,0.678,0,0,0,0.6903,0.6908,0.6895,0.6882,0.6875,0.6873,0.687,0.6835,0.683,0.682,0.6813,0.6803,0.6803,0.678,0.678,0.6795,0,0,0,0.6905,0.6913,0.6896,0.6903,0.6875,0.6855,0.6873,0.6833,0.6828,0.6813,0.6803,0.6802,0.678,0.678,0.6795,0.68,0,0,0,0.6914,0.6914,0.691,0.6904,0.6887,0.6855,0.6847,0.6831,0.6824,0.6804,0.6802,0.678,0.678,0.6794,0.6799,0.6798,0,0,0,0.6926,0.6923,0.6911,0.6904,0.6888,0.6865,0.6848,0.683,0.6814,0.6803,0.678,0.678,0.6794,0.6798,0.6797,0.6799,0.6801,0,0,0.6928,0.6923,0.6918,0.6906,0.6889,0.687,0.6854,0.6828,0.6814,0.6792,0.6791,0.6795,0.6799,0.6797,0.6807,0.6808,0,0,0,0.6923,0.6919,0.6912,0.6899,0.688,0.6864,0.684,0.683,0.6811,0.6806,0.6793,0.6795,0.6794,0.6794,0.6796,0.6794,0.6781,0.6781,0.6781,0.6941,0.6926,0.6916,0.6896,0.6884,0.6859,0.6847,0.683,0.6816,0.6814,0.6807,0.6815,0.6815,0.6816,0.6814,0.6806,0.6806,0.6806,0.6806,0.6942,0.6935,0.6919,0.6904,0.6888,0.6874,0.685,0.6841,0.6826,0.6818,0.6816,0.6809,0.6819,0.6816,0.6807,0.6807,0.6807,0.6807,0.6807,0.6953,0.6947,0.6937,0.6917,0.6904,0.6882,0.6869,0.6854,0.6839,0.6837,0.6828,0.6828,0.6826,0.6834,0.6834,0.6834,0.6834,0.6834,0.6834,0.6968,0.6956,0.6947,0.6928,0.6919,0.6903,0.6879,0.6869,0.6853,0.6842,0.6842,0.6829,0.6823,0.6822,0.6834,0.6834,0.6834,0.6834,0.6834,0.6975,0.6971,0.6958,0.6949,0.6925,0.6913,0.6894,0.6874,0.6862,0.6856,0.6844,0.6842,0.6835,0.6834,0.6833,0.6847,0.6847,0.6847,0.6847,0.6984,0.6979,0.6963,0.6949,0.6933,0.6915,0.69,0.6881,0.6861,0.6853,0.6848,0.6845,0.6845,0.6838,0.6837,0.6836,0.6851,0.6851,0.6851,0.6987,0.6981,0.6971,0.6953,0.6934,0.6917,0.6903,0.6886,0.6862,0.6851,0.6846,0.6846,0.6841,0.6841,0.6829,0.6827,0.6824,0,0]}]]